Location: Brusselsch Zeekanaal
(50.8667°N, 4.3667°E)
Time: 05:57:23
(UTC+00:00)

Cosmos 2251 Rocket - Pass Details

Date: 08 November 2025
Orbit: 760 x 788 km, 74.0° (Epoch: 11 December)

Event Time Altitude Azimuth Distance (km) Brightness Sun altitude
Exits shadow 05:11:32 - 335° (NNW) 2,926 6.2 -15.1°
Reaches altitude 10° 05:13:00 10° 335° (NNW) 2,356 5.7 -14.9°
Maximum altitude 05:18:23 87° 248° (WSW) 796 3.5 -14.1°
Drops below altitude 10° 05:23:44 10° 159° (SSE) 2,347 6.4 -13.2°
Sets 05:26:07 0° 159° (SSE) 3,271 7.2 -12.9°
